Weather History for Madisonville, KY

Change the Weather History Date:

Saturday, February 9, 2013

  Actual Average (KOWB) Record (KOWB)
Temperature  
Mean Temperature 40 °F -  
Max Temperature 49 °F 41 °F 73 °F (1965)
Min Temperature 32 °F 22 °F 0 °F (1971)
Degree Days  
Heating Degree Days 24    
Moisture  
Dew Point 32 °F    
Average Humidity 72    
Maximum Humidity 93    
Minimum Humidity 51    
Precipitation  
Precipitation 0.00 in - - ()
Sea Level Pressure  
Sea Level Pressure 30.29 in    
Wind  
Wind Speed 6 mph (ESE)    
Max Wind Speed 10 mph    
Max Gust Speed -    
Visibility 10 miles    
Events      
Averages and records for this station are not official NWS values.
T = Trace of Precipitation, MM = Missing Value Source: NWS Daily Summary

Daily Weather History Graph

Daily Weather History Graph

Search for Another Location

Airport:

Trip Planner

Search our weather history database for the weather conditions in past years. The results will help you decide how hot, cold, wet, or windy it might be!

Date:

Astronomy

Feb. 09, 2013 Rise Set
Actual Time 6:45 AM CST 5:23 PM CST
Civil Twilight 6:18 AM CST 5:50 PM CST
Nautical Twilight 5:47 AM CST 6:20 PM CST
Astronomical Twilight 5:16 AM CST 6:51 PM CST
Moon 5:56 AM CST (2/9) 5:04 PM CST (2/9)
Length of Visible Light 11h 32m
Length of Day
10h 38m
Waning Crescent, 0% of the Moon is Illuminated
Feb 9
Waning Crescent
Feb 10
New
Feb 17
First Quarter
Feb 25
Full
Mar 4
Last Quarter

Hourly Weather History & Observations

Time (CST) Temp. Windchill Dew Point Humidity Pressure Visibility Wind Dir Wind Speed Gust Speed Precip Events Conditions
12:15 AM 34.7 °F 27.5 °F 30.4 °F 84% 30.37 in 10.0 mi East 9.2 mph - N/A   Overcast
12:35 AM 34.3 °F 27.7 °F 30.2 °F 85% 30.37 in 10.0 mi ENE 8.1 mph - N/A   Overcast
12:55 AM 34.5 °F 28.6 °F 30.4 °F 85% 30.36 in 10.0 mi East 6.9 mph - N/A   Overcast
1:15 AM 34.3 °F 27.7 °F 30.0 °F 84% 30.36 in 10.0 mi East 8.1 mph - N/A   Overcast
1:35 AM 34.5 °F 29.4 °F 30.2 °F 84% 30.36 in 10.0 mi East 5.8 mph - N/A   Overcast
1:55 AM 34.3 °F 27.7 °F 29.3 °F 82% 30.37 in 10.0 mi East 8.1 mph - N/A   Overcast
2:15 AM 34.5 °F 27.3 °F 29.1 °F 81% 30.37 in 10.0 mi East 9.2 mph - N/A   Overcast
2:35 AM 34.5 °F 27.3 °F 28.9 °F 80% 30.36 in 10.0 mi East 9.2 mph - N/A   Overcast
2:55 AM 34.0 °F 27.2 °F 29.3 °F 83% 30.36 in 10.0 mi East 8.1 mph - N/A   Overcast
3:15 AM 33.1 °F 30.0 °F 29.3 °F 86% 30.35 in 10.0 mi ESE 3.5 mph - N/A   Scattered Clouds
3:35 AM 32.4 °F 29.1 °F 29.3 °F 88% 30.35 in 10.0 mi East 3.5 mph - N/A   Scattered Clouds
3:55 AM 32.0 °F - 29.8 °F 92% 30.36 in 10.0 mi Calm Calm - N/A   Mostly Cloudy
4:15 AM 32.0 °F 28.7 °F 30.2 °F 93% 30.36 in 10.0 mi East 3.5 mph - N/A   Overcast
4:35 AM 32.4 °F - 29.8 °F 90% 30.37 in 10.0 mi Calm Calm - N/A   Overcast
4:55 AM 32.2 °F 28.9 °F 30.4 °F 93% 30.36 in 10.0 mi ENE 3.5 mph - N/A   Overcast
5:15 AM 32.0 °F 27.5 °F 29.8 °F 92% 30.37 in 10.0 mi NE 4.6 mph - N/A   Overcast
5:35 AM 32.0 °F 27.5 °F 29.8 °F 92% 30.37 in 10.0 mi NE 4.6 mph - N/A   Overcast
6:15 AM 32.4 °F 27.9 °F 30.0 °F 91% 30.39 in 10.0 mi NE 4.6 mph - N/A   Overcast
6:35 AM 32.9 °F 27.5 °F 30.2 °F 90% 30.39 in 10.0 mi ENE 5.8 mph - N/A   Overcast
6:55 AM 33.3 °F 27.1 °F 30.2 °F 89% 30.39 in 10.0 mi East 6.9 mph - N/A   Overcast
7:15 AM 33.8 °F 26.4 °F 29.1 °F 83% 30.39 in 10.0 mi East 9.2 mph - N/A   Overcast
7:35 AM 34.3 °F 29.2 °F 29.1 °F 81% 30.39 in 10.0 mi ESE 5.8 mph - N/A   Overcast
7:55 AM 35.1 °F 30.1 °F 29.1 °F 79% 30.39 in 10.0 mi East 5.8 mph - N/A   Scattered Clouds
8:15 AM 35.6 °F 29.9 °F 29.3 °F 78% 30.38 in 10.0 mi ESE 6.9 mph - N/A   Clear
8:35 AM 36.7 °F 31.2 °F 29.7 °F 76% 30.38 in 10.0 mi ESE 6.9 mph - N/A   Clear
8:55 AM 37.4 °F 31.4 °F 30.0 °F 75% 30.38 in 10.0 mi ESE 8.1 mph - N/A   Scattered Clouds
9:15 AM 38.3 °F 31.4 °F 30.2 °F 73% 30.39 in 10.0 mi ESE 10.4 mph - N/A   Scattered Clouds
9:35 AM 39.0 °F 34.0 °F 30.4 °F 71% 30.39 in 10.0 mi SSE 6.9 mph - N/A   Scattered Clouds
9:55 AM 40.1 °F 35.3 °F 31.6 °F 72% 30.39 in 10.0 mi SE 6.9 mph - N/A   Clear
10:15 AM 39.7 °F 36.5 °F 30.2 °F 69% 30.38 in 10.0 mi SE 4.6 mph - N/A   Clear
10:35 AM 41.0 °F 36.4 °F 31.1 °F 68% 30.37 in 10.0 mi SSE 6.9 mph - N/A   Clear
10:55 AM 41.2 °F 38.2 °F 30.7 °F 66% 30.36 in 10.0 mi SE 4.6 mph - N/A   Clear
11:15 AM 41.7 °F 38.0 °F 31.1 °F 66% 30.36 in 10.0 mi SE 5.8 mph - N/A   Clear
11:35 AM 43.2 °F 39.0 °F 31.5 °F 63% 30.34 in 10.0 mi SE 6.9 mph - N/A   Clear
11:55 AM 43.5 °F 40.1 °F 31.6 °F 63% 30.34 in 10.0 mi East 5.8 mph - N/A   Clear
12:15 PM 45.3 °F 42.3 °F 32.0 °F 60% 30.32 in 10.0 mi SE 5.8 mph - N/A   Clear
12:35 PM 46.4 °F 44.3 °F 32.9 °F 59% 30.30 in 10.0 mi East 4.6 mph - N/A   Clear
12:55 PM 46.6 °F - 32.2 °F 57% 30.30 in 10.0 mi ESE 4.6 mph - N/A   Clear
1:15 PM 47.7 °F - 31.6 °F 54% 30.28 in 10.0 mi ESE 4.6 mph - N/A   Clear
1:35 PM 47.7 °F - 32.2 °F 55% 30.27 in 10.0 mi ESE 4.6 mph - N/A   Clear
1:55 PM 48.9 °F - 32.4 °F 53% 30.26 in 10.0 mi East 6.9 mph - N/A   Clear
2:15 PM 49.1 °F - 33.3 °F 54% 30.25 in 10.0 mi East 6.9 mph - N/A   Clear
2:35 PM 49.5 °F - 33.1 °F 53% 30.25 in 10.0 mi East 5.8 mph - N/A   Clear
2:55 PM 49.3 °F - 34.0 °F 56% 30.24 in 10.0 mi East 8.1 mph - N/A   Clear
3:15 PM 49.3 °F - 35.1 °F 58% 30.24 in 10.0 mi ENE 8.1 mph - N/A   Clear
3:35 PM 49.3 °F - 35.4 °F 59% 30.22 in 10.0 mi ESE 8.1 mph - N/A   Clear
3:55 PM 49.1 °F - 34.0 °F 56% 30.23 in 10.0 mi East 5.8 mph - N/A   Clear
4:15 PM 49.8 °F - 34.9 °F 56% 30.22 in 10.0 mi East 4.6 mph - N/A   Clear
4:35 PM 49.6 °F - 32.0 °F 51% 30.22 in 10.0 mi ESE 4.6 mph - N/A   Clear
4:55 PM 48.4 °F - 34.0 °F 58% 30.21 in 10.0 mi ESE 4.6 mph - N/A   Clear
5:15 PM 46.6 °F - 35.2 °F 65% 30.20 in 10.0 mi ESE 3.5 mph - N/A   Clear
5:35 PM 44.8 °F 42.4 °F 34.2 °F 66% 30.20 in 10.0 mi ESE 4.6 mph - N/A   Clear
5:55 PM 46.2 °F 44.1 °F 32.9 °F 60% 30.20 in 10.0 mi ESE 4.6 mph - N/A   Clear
6:15 PM 45.7 °F - 32.7 °F 61% 30.20 in 10.0 mi Calm Calm - N/A   Clear
6:35 PM 43.9 °F 42.3 °F 34.2 °F 69% 30.19 in 10.0 mi ESE 3.5 mph - N/A   Clear
6:55 PM 43.7 °F - 33.3 °F 67% 30.19 in 10.0 mi Calm Calm - N/A   Clear
7:35 PM 41.5 °F 37.8 °F 32.5 °F 70% 30.17 in 10.0 mi ESE 5.8 mph - N/A   Clear
7:55 PM 43.3 °F 40.7 °F 32.4 °F 65% 30.17 in 10.0 mi ESE 4.6 mph - N/A   Clear
8:15 PM 43.7 °F 41.1 °F 32.0 °F 63% 30.17 in 10.0 mi ESE 4.6 mph - N/A   Clear
8:35 PM 43.7 °F 41.1 °F 32.5 °F 65% 30.16 in 10.0 mi SE 4.6 mph - N/A   Clear
8:55 PM 43.7 °F 41.1 °F 32.9 °F 66% 30.16 in 10.0 mi ESE 4.6 mph - N/A   Clear
9:15 PM 43.7 °F 42.1 °F 32.9 °F 66% 30.15 in 10.0 mi SE 3.5 mph - N/A   Clear
9:35 PM 43.2 °F 40.5 °F 32.7 °F 67% 30.15 in 10.0 mi ESE 4.6 mph - N/A   Clear
9:55 PM 42.8 °F 41.1 °F 32.9 °F 68% 30.14 in 10.0 mi ESE 3.5 mph - N/A   Clear
10:15 PM 43.2 °F - 32.4 °F 66% 30.13 in 10.0 mi Calm Calm - N/A   Clear
10:35 PM 43.2 °F - 32.2 °F 65% 30.13 in 10.0 mi Calm Calm - N/A   Clear
10:55 PM 43.0 °F - 32.0 °F 65% 30.13 in 10.0 mi Calm Calm - N/A   Scattered Clouds
11:15 PM 42.8 °F - 33.6 °F 70% 30.13 in 10.0 mi Calm Calm - N/A   Mostly Cloudy
11:35 PM 41.5 °F - 36.3 °F 82% 30.12 in 10.0 mi Calm Calm - N/A   Overcast
11:55 PM 41.2 °F 39.2 °F 36.1 °F 82% 30.12 in 10.0 mi East 3.5 mph - N/A   Mostly Cloudy